timestamp,surface_pressure_avg,surface_temp_avg,battery_voltage,lat,long
2023-01-16 00:09:00+00:00,203.5148,3.0,12.49,47.84626,-54.09684
2023-01-16 00:19:00+00:00,200.4565,3.0,12.49,47.84626,-54.09684
2023-01-16 00:29:00+00:00,222.7097,3.0,12.49,47.84626,-54.09684
2023-01-16 00:39:00+00:00,232.9231,3.0,12.49,47.84626,-54.09684
2023-01-16 00:49:00+00:00,234.2364,2.92,12.49,47.84626,-54.09684
2023-01-16 00:59:00+00:00,240.1331,2.95,12.49,47.84626,-54.09684
2023-01-16 01:09:00+00:00,242.7997,2.9,12.49,47.84626,-54.09684
2023-01-16 01:19:00+00:00,233.0181,2.84,12.49,47.84626,-54.09684
2023-01-16 01:29:00+00:00,223.3964,2.8,12.49,47.84626,-54.09684
2023-01-16 01:39:00+00:00,232.0231,2.8,12.49,47.84626,-54.09684
2023-01-16 01:49:00+00:00,242.9614,2.79,12.49,47.84626,-54.09684
2023-01-16 01:59:00+00:00,252.7314,2.8,12.49,47.84626,-54.09684
2023-01-16 02:09:00+00:00,248.2431,2.87,12.49,47.84626,-54.09684
2023-01-16 02:19:00+00:00,242.6981,2.8,12.49,47.84626,-54.09684
2023-01-16 02:29:00+00:00,250.0598,2.82,12.49,47.84626,-54.09684
2023-01-16 02:39:00+00:00,259.3264,2.89,12.49,47.84626,-54.09684
2023-01-16 02:49:00+00:00,264.2448,2.9,12.49,47.84626,-54.09684
2023-01-16 02:59:00+00:00,275.7331,2.7,12.49,47.84626,-54.09684
2023-01-16 03:09:00+00:00,291.1681,2.81,12.49,47.84626,-54.09684
2023-01-16 03:19:01+00:00,287.578,2.8,12.49,47.84626,-54.09684
2023-01-16 03:29:01+00:00,276.6014,2.78,12.49,47.84626,-54.09684
2023-01-16 03:39:01+00:00,279.9998,2.79,12.49,47.84626,-54.09684
2023-01-16 03:49:01+00:00,298.1664,2.8,12.49,47.84626,-54.09684
2023-01-16 03:59:01+00:00,306.4847,2.8,12.49,47.84626,-54.09684
2023-01-16 04:09:01+00:00,300.2897,2.8,12.49,47.84626,-54.09684
2023-01-16 04:19:01+00:00,311.7531,2.79,12.49,47.84626,-54.09684
2023-01-16 04:29:01+00:00,323.5763,2.8,12.49,47.84626,-54.09684
2023-01-16 04:39:01+00:00,314.8414,2.8,12.49,47.84626,-54.09684
2023-01-16 04:49:01+00:00,314.2947,2.8,12.49,47.84626,-54.09684
2023-01-16 04:59:01+00:00,334.3696,2.8,12.49,47.84626,-54.09684
2023-01-16 05:09:01+00:00,342.5463,2.8,12.49,47.84626,-54.09684
2023-01-16 05:19:01+00:00,322.0213,2.73,12.49,47.84626,-54.09684
2023-01-16 05:29:01+00:00,330.6396,2.89,12.49,47.84626,-54.09684
2023-01-16 05:39:01+00:00,348.3179,2.8,12.49,47.84626,-54.09684
2023-01-16 05:49:01+00:00,339.293,2.66,12.49,47.84626,-54.09684
2023-01-16 05:59:01+00:00,331.978,2.69,12.49,47.84626,-54.09684
2023-01-16 06:09:01+00:00,340.5912,2.79,12.49,47.84626,-54.09684
2023-01-16 06:19:00+00:00,350.6613,2.71,12.49,47.84626,-54.09684
2023-01-16 06:29:00+00:00,340.2379,2.7,12.49,47.84626,-54.09684
2023-01-16 06:39:00+00:00,332.9947,2.77,12.49,47.84626,-54.09684
2023-01-16 06:49:00+00:00,338.4529,2.8,12.49,47.84626,-54.09684
2023-01-16 06:59:00+00:00,342.0996,2.73,12.49,47.84626,-54.09684
2023-01-16 07:09:00+00:00,340.98800000000006,2.74,12.49,47.84626,-54.09684
2023-01-16 07:19:00+00:00,334.533,2.7,12.49,47.84626,-54.09684
2023-01-16 07:29:00+00:00,332.8297,2.7,12.49,47.84626,-54.09684
2023-01-16 07:39:00+00:00,324.4446,2.7,12.49,47.84626,-54.09684
2023-01-16 07:49:00+00:00,324.4597,2.7,12.49,47.84626,-54.09684
2023-01-16 07:59:00+00:00,324.6146,2.7,12.49,47.84626,-54.09684
2023-01-16 08:09:00+00:00,322.4263,2.7,12.49,47.84626,-54.09684
2023-01-16 08:19:00+00:00,316.1029,2.7,12.49,47.84626,-54.09684
2023-01-16 08:29:00+00:00,305.0098,2.7,12.49,47.84626,-54.09684
2023-01-16 08:39:00+00:00,299.0663,2.69,12.49,47.84626,-54.09684
2023-01-16 08:49:00+00:00,297.8363,2.68,12.49,47.84626,-54.09684
2023-01-16 08:59:00+00:00,299.3846,2.7,12.49,47.84626,-54.09684
2023-01-16 09:09:00+00:00,292.9747,2.7,12.49,47.84626,-54.09684
2023-01-16 09:19:00+00:00,284.1031,2.66,12.49,47.84626,-54.09684
2023-01-16 09:29:00+00:00,271.7397,2.55,12.49,47.84626,-54.09684
2023-01-16 09:39:00+00:00,267.043,2.41,12.49,47.84626,-54.09684
2023-01-16 09:49:00+00:00,257.5131,2.6,12.49,47.84626,-54.09684
2023-01-16 09:59:00+00:00,250.4897,2.61,12.49,47.84626,-54.09684
2023-01-16 10:09:00+00:00,245.6214,2.6,12.49,47.84626,-54.09684
2023-01-16 10:19:01+00:00,245.0131,2.6,12.49,47.84626,-54.09684
2023-01-16 10:29:01+00:00,239.9014,2.56,12.49,47.84626,-54.09684
2023-01-16 10:39:01+00:00,238.9731,2.58,12.49,47.84626,-54.09684
2023-01-16 10:49:01+00:00,237.8014,2.6,12.49,47.84626,-54.09684
2023-01-16 10:59:01+00:00,235.7481,2.6,12.49,47.84626,-54.09684
2023-01-16 11:09:01+00:00,236.6114,2.6,12.49,47.84626,-54.09684
2023-01-16 11:19:01+00:00,240.8297,2.6,12.49,47.84626,-54.09684
2023-01-16 11:29:01+00:00,238.2847,2.5,12.49,47.84626,-54.09684
2023-01-16 11:39:01+00:00,228.1998,2.56,12.49,47.84626,-54.09684
2023-01-16 11:49:01+00:00,228.0764,2.59,12.49,47.84626,-54.09684
2023-01-16 11:59:01+00:00,236.8198,2.59,12.49,47.84626,-54.09684
2023-01-16 12:09:01+00:00,232.6131,2.5,12.49,47.84626,-54.09684
2023-01-16 12:19:00+00:00,222.2747,2.5,12.49,47.84626,-54.09684
2023-01-16 12:29:00+00:00,230.3864,2.5,12.49,47.84626,-54.09684
2023-01-16 12:39:00+00:00,236.0347,2.5,12.49,47.84626,-54.09684
2023-01-16 12:49:00+00:00,225.3231,2.5,12.49,47.84626,-54.09684
2023-01-16 12:59:00+00:00,223.4098,2.5,12.49,47.84626,-54.09684
2023-01-16 13:09:00+00:00,235.1464,2.5,12.49,47.84626,-54.09684
2023-01-16 13:19:00+00:00,232.7397,2.5,12.49,47.84626,-54.09684
2023-01-16 13:29:00+00:00,222.0815,2.8,12.49,47.84626,-54.09684
2023-01-16 13:39:00+00:00,226.5298,2.8,12.49,47.84626,-54.09684
2023-01-16 13:49:00+00:00,231.3381,2.7,12.49,47.84626,-54.09684
2023-01-16 13:59:00+00:00,227.3864,2.6,12.49,47.84626,-54.09684
2023-01-16 14:09:00+00:00,232.1714,2.7,12.49,47.84626,-54.09684
2023-01-16 14:19:00+00:00,240.4948,2.5,12.49,47.84626,-54.09684
2023-01-16 14:29:00+00:00,242.7231,2.41,12.49,47.84626,-54.09684
2023-01-16 14:39:00+00:00,244.2848,2.53,12.49,47.84626,-54.09684
2023-01-16 14:49:00+00:00,248.0931,2.68,12.49,47.84626,-54.09684
2023-01-16 14:59:00+00:00,249.6314,2.69,12.49,47.84626,-54.09684
2023-01-16 15:09:00+00:00,252.9081,2.67,12.49,47.84626,-54.09684
2023-01-16 15:19:00+00:00,257.648,2.66,12.57,47.84626,-54.09684
2023-01-16 15:29:00+00:00,262.9981,2.64,12.57,47.84626,-54.09684
2023-01-16 15:39:00+00:00,268.1414,2.63,12.57,47.84626,-54.09684
2023-01-16 15:49:00+00:00,271.0181,2.6,12.57,47.84626,-54.09684
2023-01-16 15:59:00+00:00,271.9764,2.67,12.57,47.84626,-54.09684
2023-01-16 16:09:00+00:00,274.4248,2.67,12.57,47.84626,-54.09684
2023-01-16 16:19:00+00:00,278.9764,2.8,12.49,47.84626,-54.09684
2023-01-16 16:29:00+00:00,279.83799999999997,2.8,12.49,47.84626,-54.09684
2023-01-16 16:39:00+00:00,283.4564,2.8,12.49,47.84626,-54.09684
2023-01-16 16:49:00+00:00,285.2897,2.8,12.49,47.84626,-54.09684
2023-01-16 16:59:00+00:00,288.2764,2.81,12.49,47.84626,-54.09684
2023-01-16 17:09:00+00:00,287.4963,2.8,12.49,47.84626,-54.09684
2023-01-16 17:19:00+00:00,285.8047,2.81,12.49,47.84626,-54.09684
2023-01-16 17:29:00+00:00,286.1264,2.8,12.49,47.84626,-54.09684
2023-01-16 17:39:00+00:00,296.7863,2.81,12.49,47.84626,-54.09684
2023-01-16 17:49:00+00:00,305.2246,2.8,12.49,47.84626,-54.09684
2023-01-16 17:59:00+00:00,305.3564,2.81,12.49,47.84626,-54.09684
2023-01-16 18:09:00+00:00,305.4714,2.81,12.49,47.84626,-54.09684
2023-01-16 18:19:00+00:00,311.1813,2.82,12.49,47.84626,-54.09684
2023-01-16 18:29:00+00:00,309.2263,2.8,12.49,47.84626,-54.09684
2023-01-16 18:39:00+00:00,300.6497,2.8,12.49,47.84626,-54.09684
2023-01-16 18:49:00+00:00,305.0514,2.81,12.49,47.84626,-54.09684
2023-01-16 18:59:00+00:00,308.2497,2.8,12.49,47.84626,-54.09684
2023-01-16 19:09:00+00:00,304.2414,2.8,12.49,47.84626,-54.09684
2023-01-16 19:19:01+00:00,296.2781,2.83,12.49,47.84626,-54.09684
2023-01-16 19:29:01+00:00,304.108,2.83,12.49,47.84626,-54.09684
2023-01-16 19:39:01+00:00,307.0813,2.84,12.49,47.84626,-54.09684
2023-01-16 19:49:01+00:00,298.4514,2.84,12.49,47.84626,-54.09684
2023-01-16 19:59:01+00:00,288.5847,2.86,12.49,47.84626,-54.09684
2023-01-16 20:09:01+00:00,289.3914,2.86,12.49,47.84626,-54.09684
2023-01-16 20:19:01+00:00,289.1263,2.86,12.49,47.84626,-54.09684
2023-01-16 20:29:01+00:00,284.4064,2.87,12.49,47.84626,-54.09684
2023-01-16 20:39:01+00:00,279.83299999999997,2.86,12.49,47.84626,-54.09684
2023-01-16 20:49:01+00:00,277.6964,2.83,12.49,47.84626,-54.09684
2023-01-16 20:59:01+00:00,268.6781,2.8,12.49,47.84626,-54.09684
2023-01-16 21:09:01+00:00,265.2248,2.8,12.49,47.84626,-54.09684
2023-01-16 21:19:00+00:00,262.7414,2.8,12.49,47.84626,-54.09684
2023-01-16 21:29:00+00:00,256.2464,2.8,12.49,47.84626,-54.09684
2023-01-16 21:39:00+00:00,255.4231,2.83,12.49,47.84626,-54.09684
2023-01-16 21:49:00+00:00,258.0664,2.85,12.49,47.84626,-54.09684
2023-01-16 21:59:00+00:00,252.2064,2.86,12.49,47.84626,-54.09684
2023-01-16 22:09:00+00:00,244.4481,2.87,12.49,47.84626,-54.09684
2023-01-16 22:19:01+00:00,247.9081,2.85,12.49,47.84626,-54.09684
2023-01-16 22:29:01+00:00,242.8714,2.84,12.49,47.84626,-54.09684
2023-01-16 22:39:01+00:00,233.1082,2.81,12.49,47.84626,-54.09684
2023-01-16 22:49:01+00:00,236.5314,2.83,12.49,47.84626,-54.09684
2023-01-16 22:59:01+00:00,243.6114,2.84,12.49,47.84626,-54.09684
2023-01-16 23:09:01+00:00,235.34799999999998,2.84,12.49,47.84626,-54.09684
2023-01-16 23:19:00+00:00,227.4214,2.86,12.49,47.84626,-54.09684
2023-01-16 23:29:00+00:00,232.9181,2.88,12.49,47.84626,-54.09684
2023-01-16 23:39:00+00:00,232.2248,2.88,12.49,47.84626,-54.09684
2023-01-16 23:49:00+00:00,226.3364,2.88,12.49,47.84626,-54.09684
2023-01-16 23:59:00+00:00,224.5631,2.89,12.49,47.84626,-54.09684
